TimeEST,TemperatureF,Dew PointF,Humidity,Sea Level PressureIn,VisibilityMPH,Wind Direction,Wind SpeedMPH,Gust SpeedMPH,PrecipitationIn,Events,Conditions,WindDirDegrees,DateUTC
12:15 AM,21.2,8.6,58,29.83,10.0,WSW,9.2,-,N/A,,Clear,250,2012-01-29 05:15:00
12:35 AM,21.2,6.8,54,29.84,10.0,WSW,9.2,-,N/A,,Clear,250,2012-01-29 05:35:00
1:15 AM,19.4,6.8,58,29.83,10.0,WSW,9.2,-,N/A,,Clear,250,2012-01-29 06:15:00
1:35 AM,19.4,6.8,58,29.84,10.0,WSW,8.1,-,N/A,,Clear,250,2012-01-29 06:35:00
1:55 AM,19.4,6.8,58,29.84,10.0,WSW,8.1,-,N/A,,Clear,250,2012-01-29 06:55:00
2:15 AM,19.4,6.8,58,29.84,10.0,WSW,6.9,-,N/A,,Clear,250,2012-01-29 07:15:00
2:35 AM,17.6,6.8,63,29.85,10.0,WSW,8.1,-,N/A,,Clear,250,2012-01-29 07:35:00
2:55 AM,17.6,6.8,63,29.85,10.0,WSW,8.1,-,N/A,,Clear,250,2012-01-29 07:55:00
3:15 AM,15.8,5.0,62,29.85,10.0,West,8.1,-,N/A,,Clear,260,2012-01-29 08:15:00
3:35 AM,15.8,5.0,62,29.86,10.0,West,9.2,-,N/A,,Clear,260,2012-01-29 08:35:00
3:55 AM,15.8,5.0,62,29.86,10.0,West,9.2,-,N/A,,Clear,260,2012-01-29 08:55:00
4:15 AM,15.8,5.0,62,29.85,10.0,West,10.4,-,N/A,,Clear,260,2012-01-29 09:15:00
4:35 AM,15.8,5.0,62,29.86,10.0,West,9.2,-,N/A,,Clear,260,2012-01-29 09:35:00
4:55 AM,15.8,5.0,62,29.86,10.0,West,9.2,-,N/A,,Clear,260,2012-01-29 09:55:00
5:15 AM,15.8,5.0,62,29.86,10.0,West,6.9,-,N/A,,Clear,270,2012-01-29 10:15:00
5:35 AM,14.0,3.2,62,29.87,10.0,West,5.8,-,N/A,,Mostly Cloudy,270,2012-01-29 10:35:00
5:55 AM,15.8,5.0,62,29.86,10.0,West,6.9,-,N/A,,Overcast,280,2012-01-29 10:55:00
6:15 AM,15.8,5.0,62,29.86,10.0,West,6.9,-,N/A,,Overcast,270,2012-01-29 11:15:00
6:55 AM,17.6,6.8,63,29.88,10.0,West,8.1,-,N/A,,Overcast,260,2012-01-29 11:55:00
7:15 AM,17.6,6.8,63,29.88,10.0,West,6.9,-,N/A,,Overcast,270,2012-01-29 12:15:00
7:35 AM,17.6,6.8,63,29.89,10.0,West,6.9,-,N/A,,Overcast,270,2012-01-29 12:35:00
7:55 AM,17.6,6.8,63,29.90,10.0,West,8.1,-,N/A,,Overcast,270,2012-01-29 12:55:00
8:15 AM,17.6,6.8,63,29.90,10.0,West,8.1,-,N/A,,Overcast,280,2012-01-29 13:15:00
8:35 AM,17.6,6.8,63,29.91,10.0,West,5.8,-,N/A,,Overcast,280,2012-01-29 13:35:00
8:55 AM,17.6,8.6,68,29.91,10.0,West,5.8,-,N/A,,Overcast,270,2012-01-29 13:55:00
9:15 AM,19.4,8.6,63,29.92,10.0,West,9.2,-,N/A,,Overcast,270,2012-01-29 14:15:00
9:35 AM,19.4,8.6,63,29.92,10.0,West,8.1,-,N/A,,Overcast,260,2012-01-29 14:35:00
9:55 AM,19.4,8.6,63,29.92,10.0,West,6.9,-,N/A,,Overcast,270,2012-01-29 14:55:00
10:15 AM,19.4,8.6,63,29.93,10.0,WNW,6.9,-,N/A,,Overcast,290,2012-01-29 15:15:00
10:35 AM,21.2,6.8,54,29.94,10.0,NW,5.8,-,N/A,,Overcast,320,2012-01-29 15:35:00
10:55 AM,21.2,8.6,58,29.95,10.0,WNW,6.9,-,N/A,,Overcast,290,2012-01-29 15:55:00
11:15 AM,21.2,6.8,54,29.95,10.0,NNW,6.9,-,N/A,,Overcast,330,2012-01-29 16:15:00
11:35 AM,21.2,6.8,54,29.97,10.0,NNW,8.1,-,N/A,,Overcast,330,2012-01-29 16:35:00
11:55 AM,21.2,6.8,54,29.96,10.0,NNW,10.4,-,N/A,,Overcast,340,2012-01-29 16:55:00
12:15 PM,21.2,5.0,50,29.97,10.0,NW,11.5,19.6,N/A,,Overcast,310,2012-01-29 17:15:00
12:35 PM,21.2,6.8,54,29.97,10.0,NNW,13.8,17.3,N/A,,Overcast,340,2012-01-29 17:35:00
12:55 PM,21.2,3.2,46,29.97,10.0,NW,11.5,20.7,N/A,,Overcast,320,2012-01-29 17:55:00
1:15 PM,21.2,3.2,46,29.97,10.0,NNW,11.5,-,N/A,,Overcast,330,2012-01-29 18:15:00
1:35 PM,21.2,3.2,46,29.97,10.0,WNW,9.2,20.7,N/A,,Overcast,300,2012-01-29 18:35:00
1:55 PM,21.2,3.2,46,29.98,10.0,NW,12.7,17.3,N/A,,Overcast,320,2012-01-29 18:55:00
2:15 PM,21.2,3.2,46,29.98,10.0,NW,10.4,21.9,N/A,,Overcast,310,2012-01-29 19:15:00
2:35 PM,21.2,3.2,46,29.98,10.0,NW,10.4,16.1,N/A,,Overcast,320,2012-01-29 19:35:00
2:55 PM,21.2,3.2,46,29.98,10.0,NNW,8.1,-,N/A,,Overcast,330,2012-01-29 19:55:00
3:15 PM,21.2,3.2,46,29.99,10.0,NW,10.4,18.4,N/A,,Overcast,310,2012-01-29 20:15:00
3:35 PM,21.2,5.0,50,29.99,10.0,WNW,10.4,-,N/A,,Overcast,290,2012-01-29 20:35:00
3:55 PM,21.2,3.2,46,30.00,10.0,West,13.8,17.3,N/A,,Overcast,280,2012-01-29 20:55:00
4:15 PM,21.2,5.0,50,30.01,10.0,WNW,11.5,20.7,N/A,,Overcast,290,2012-01-29 21:15:00
4:35 PM,21.2,5.0,50,30.02,10.0,WNW,9.2,-,N/A,,Overcast,290,2012-01-29 21:35:00
4:55 PM,21.2,3.2,46,30.03,10.0,WNW,15.0,19.6,N/A,,Overcast,300,2012-01-29 21:55:00
5:15 PM,21.2,3.2,46,30.04,10.0,NW,11.5,-,N/A,,Overcast,310,2012-01-29 22:15:00
5:35 PM,21.2,3.2,46,30.04,10.0,WNW,12.7,-,N/A,,Overcast,290,2012-01-29 22:35:00
6:15 PM,19.4,1.4,46,30.06,10.0,WNW,9.2,-,N/A,,Overcast,300,2012-01-29 23:15:00
6:35 PM,17.6,1.4,49,30.07,10.0,NW,6.9,-,N/A,,Partly Cloudy,310,2012-01-29 23:35:00
6:55 PM,17.6,1.4,49,30.08,10.0,WNW,4.6,-,N/A,,Clear,300,2012-01-29 23:55:00
7:15 PM,15.8,1.4,53,30.09,10.0,WNW,4.6,-,N/A,,Clear,290,2012-01-30 00:15:00
7:35 PM,14.0,1.4,57,30.10,10.0,West,5.8,-,N/A,,Clear,280,2012-01-30 00:35:00
7:55 PM,12.2,1.4,62,30.12,10.0,West,6.9,-,N/A,,Clear,280,2012-01-30 00:55:00
8:15 PM,12.2,1.4,62,30.12,10.0,West,5.8,-,N/A,,Partly Cloudy,280,2012-01-30 01:15:00
8:35 PM,12.2,1.4,62,30.12,10.0,NW,4.6,-,N/A,,Clear,320,2012-01-30 01:35:00
8:55 PM,10.4,-0.4,62,30.12,10.0,NW,3.5,-,N/A,,Clear,320,2012-01-30 01:55:00
9:15 PM,8.6,-0.4,67,30.12,10.0,Calm,Calm,-,N/A,,Clear,0,2012-01-30 02:15:00
9:35 PM,6.8,-0.4,72,30.12,10.0,Calm,Calm,-,N/A,,Clear,0,2012-01-30 02:35:00
9:55 PM,8.6,-0.4,67,30.13,10.0,Calm,Calm,-,N/A,,Clear,0,2012-01-30 02:55:00
10:15 PM,6.8,-0.4,72,30.13,10.0,NW,3.5,-,N/A,,Clear,310,2012-01-30 03:15:00
10:35 PM,5.0,-2.2,72,30.13,10.0,Calm,Calm,-,N/A,,Clear,0,2012-01-30 03:35:00
10:55 PM,3.2,-2.2,78,30.13,3.0,Calm,Calm,-,N/A,,Clear,0,2012-01-30 03:55:00
11:15 PM,1.4,-5.8,72,30.13,10.0,Calm,Calm,-,N/A,,Clear,0,2012-01-30 04:15:00
11:35 PM,1.4,-7.6,66,30.13,10.0,Calm,Calm,-,N/A,,Clear,0,2012-01-30 04:35:00
11:55 PM,1.4,-7.6,66,30.13,10.0,West,4.6,-,N/A,,Clear,280,2012-01-30 04:55:00